Regional Weather Roundup
Issued by NWS

Home | Current Version | Previous Version | Graphics & Text | Print | Product List | Glossary Off
Versions: 1 2 3 4 5 6 7 8 9 10 11 12 13 14 15 16 17 18 19 20 21 22 23 24 25 26 27 28 29 30 31 32 33 34 35 36 37 38 39 40 41 42 43 44 45 46 47 48 49 50

000
ASUS43 KDMX 170206
RWRIA

WEATHER ROUNDUP FOR IOWA
NATIONAL WEATHER SERVICE DES MOINES IA
900 PM CDT WED AUG 16 2017

NOTE: "FAIR" INDICATES FEW OR NO CLOUDS BELOW 12,000 FEET WITH NO
SIGNIFICANT WEATHER AND/OR OBSTRUCTIONS TO VISIBILITY.

* - THESE STATIONS ARE NOT NWS STATIONS...THUS NOT UNDER NWS
QUALITY CONTROL.  THEY ALSO DO NOT REPORT WEATHER SUCH
AS PRECIPITATION OR FOG.

IAZ001>003-012>014-020>022-031>034-043>046-170300-
   NORTHWEST IOWA

CITY           SKY/WX    TMP DP  RH WIND       PRES   REMARKS
CARROLL *      CLEAR     70  68  94 W7        29.75S
CHEROKEE *     PTCLDY    67  65  96 SW6       29.73S
DENISON *      PTCLDY    68  64  88 W6        29.79R
LE MARS *      CLOUDY    68  64  88 W13       29.74R
ORANGE CITY *  CLOUDY    68  66  94 W12       29.73S
SHELDON *      CLOUDY    66  64  94 W10G17    29.70R
SIOUX CITY     CLOUDY    68  65  90 W14G21    29.76R
SPENCER        CLOUDY    68  65  90 W16       29.70R
STORM LAKE *   CLOUDY    68  64  88 W9G17     29.74S
$$

IAZ055>058-069>071-079>083-090>094-170300-
   SOUTHWEST IOWA

CITY           SKY/WX    TMP DP  RH WIND       PRES   REMARKS
ATLANTIC *     CLEAR     70  66  88 W7        29.78S
AUDUBON *      CLEAR     68  64  88 CALM      29.79S
CLARINDA *       N/A     72  68  88 SW6       29.82R
COUNCIL BLFS * CLEAR     70  68  94 W5        29.80S
CRESTON *      CLOUDY    72  66  83 SW8       29.81R
HARLAN  *      CLEAR     68  66  94 W5        29.81F
LAMONI         CLOUDY    75  69  81 SW5       29.80R
RED OAK *      CLOUDY    72  66  83 CALM      29.80R
SHENANDOAH *   CLOUDY    72  68  88 W5        29.81R
$$

IAZ047>049-059>061-072>074-084-170300-
   CENTRAL IOWA

CITY           SKY/WX    TMP DP  RH WIND       PRES   REMARKS
AMES           CLOUDY    72  69  90 SW8       29.74R
ANKENY *       CLOUDY    79  66  65 SW9G16    29.75S HX  81
BOONE *        PTCLDY    75  66  73 SW10      29.74R
CHARITON *     CLOUDY    77  68  73 SW6       29.78R
DES MOINES     MOCLDY    77  66  68 SW13      29.75R
GRINNELL*      CLOUDY    76  70  80 S7        29.77S
KNOXVILLE *    CLOUDY    79  68  69 SW7       29.75S HX  81
MARSHALLTOWN   MOCLDY    78  70  76 SW9       29.73R HX  80
NEWTON *       MOCLDY    77  68  73 SW9       29.75S
PELLA *        MOCLDY    78  67  68 SW7       29.77R HX  80
PERRY *        MOCLDY    72  69  89 W9        29.75R
$$

IAZ004>006-015-016-023>025-035-036-170300-
   NORTH CENTRAL IOWA

CITY           SKY/WX    TMP DP  RH WIND       PRES   REMARKS
ALGONA *       CLOUDY    70  68  94 SW14G24   29.70R
CLARION *      PTCLDY    72  70  94 SW12      29.71S
ESTHERVILLE    CLOUDY    68  66  93 SW13G22   29.66R
FORT DODGE *   CLOUDY    72  64  78 W10G20    29.74R
MASON CITY     PTCLDY    73  71  93 S10       29.70R
FOREST CITY *    N/A     73  68  83 SW13G21   29.69R
WEBSTER CITY * PTCLDY    73  66  78 W12       29.71R
IOWA FALLS *     N/A     76  69  81 S10       29.74R
$$

IAZ007>011-017>019-026>030-037>042-050>054-066-170300-
   NORTHEAST IOWA

CITY           SKY/WX    TMP DP  RH WIND       PRES   REMARKS
CEDAR RAPIDS   CLOUDY    76  73  91 S6        29.75S
CHARLES CITY * CLOUDY    73  73 100 S9        29.72R
CLINTON *      MOCLDY    76  73  91 S9        29.80F
DECORAH *      CLOUDY    73  72  94 SE10G17   29.72R
DUBUQUE        PTCLDY    75  72  90 S10       29.79R
MONTICELLO *   CLOUDY    77  73  88 S7        29.77S
OELWEIN *      CLOUDY    75  73  94 S10       29.74F
WATERLOO       PTCLDY    77  70  79 S9        29.71S
$$

IAZ064-065-067-068-078-170300-
   EAST CENTRAL IOWA

CITY           SKY/WX    TMP DP  RH WIND       PRES   REMARKS
DAVENPORT      CLEAR     77  72  84 S10       29.81S
IOWA CITY      CLOUDY    79  73  82 S8        29.77S HX  82
MT. PLEASANT * CLOUDY    76  70  81 S14       29.80S
MUSCATINE *    PTCLDY    77  73  88 S9        29.78F
QUAD CITIES    PTCLDY    78  72  81 S8        29.79S HX  80
$$

IAZ062-063-075>077-085>089-095>099-170300-
   SOUTHEAST IOWA

CITY           SKY/WX    TMP DP  RH WIND       PRES   REMARKS
BURLINGTON     CLOUDY    77  74  90 S15       29.81R
FAIRFIELD *    CLOUDY    79  72  78 S14       29.78S HX  82
FORT MADISON * MOCLDY    77  72  83 S13G21    29.82S
KEOKUK *       CLOUDY    75  70  83 VRB6G15   29.82S
OSKALOOSA *      N/A     77  71  81 S10       29.77S
CENTERVILLE *    N/A     75  70  83 CALM      29.81R
OTTUMWA        CLOUDY    77  74  90 S8        29.77S
WASHINGTON *   PTCLDY    79  73  83 S13       29.79S HX  82
$$

ABBREVIATIONS USED IN REMARKS
   TC - TEMPERATURES IN CELSIUS
  WCI - WIND CHILL INDEX
   HX - HEAT INDEX
  VSB - VISIBILITY
$$




USA.gov is the U.S. government's official web portal to all federal, state and local government web resources and services.